M I D A S
Marine Information and Data Acquisition System
Tripno 1281 of the Zeeleeuw from 2007-05-31 07:14:18 to 2007-05-31 14:33:15
Back to CruiseResearch ActivitiesStationsMapUnderway DataData graphs

EquipmentUnitsComments
TimeDGPSUTC
LatitudeDGPSDM.mWGS84
LongitudeDGPSDM.mWGS84
SpeedMeteo Stationm/sRelative wind speed
DirectionMeteo StationdegRelative wind direction
TemperatureMeteo Stationdeg CelciusAir temperature
PressureMeteo StationPaAtmospheric pressure
HumidityMeteo Station%Relative humidity
Missing or incorrect values are displayed as -999
Metereological data collected by the RV Zeeleeuw from 2007-05-31 07:16:55 to 2007-05-31 14:42:46
Time Latitude Longitude Speed Direction Temperature Pressure Humidity
2007-05-31 07:18 51°13.613 2°56.04 -999 -999 -999 -999 -999
2007-05-31 07:19 51°13.65 2°55.94 -999 -999 -999 -999 -999
2007-05-31 07:20 51°13.683 2°55.837 -999 -999 -999 -999 -999
2007-05-31 07:21 51°13.69 2°55.756 -999 -999 -999 -999 -999
2007-05-31 07:22 51°13.69 2°55.722 -999 -999 -999 -999 -999
2007-05-31 07:23 51°13.712 2°55.728 -999 -999 -999 -999 -999
2007-05-31 07:24 51°13.775 2°55.679 -999 -999 -999 -999 -999
2007-05-31 07:25 51°13.903 2°55.584 -999 -999 -999 -999 -999
2007-05-31 07:26 51°14.038 2°55.486 -999 -999 -999 -999 -999
2007-05-31 07:27 51°14.15 2°55.399 -999 -999 -999 -999 -999
2007-05-31 07:28 51°14.264 2°55.259 -999 -999 -999 -999 -999
2007-05-31 07:28 51°14.374 2°55.041 -999 -999 -999 -999 -999
2007-05-31 07:30 51°14.483 2°54.758 -999 -999 -999 -999 -999
2007-05-31 07:31 51°14.594 2°54.447 -999 -999 -999 -999 -999
2007-05-31 07:32 51°14.69 2°54.125 -999 -999 -999 -999 -999
2007-05-31 07:33 51°14.718 2°53.765 -999 -999 -999 -999 -999
2007-05-31 07:34 51°14.751 2°53.404 -999 -999 -999 -999 -999
2007-05-31 07:35 51°14.776 2°53.043 -999 -999 -999 -999 -999
2007-05-31 07:35 51°14.789 2°52.682 -999 -999 -999 -999 -999
2007-05-31 07:37 51°14.793 2°52.301 -999 -999 -999 -999 -999
2007-05-31 07:38 51°14.795 2°51.922 -999 -999 -999 -999 -999
2007-05-31 07:39 51°14.802 2°51.545 -999 -999 -999 -999 -999
2007-05-31 07:40 51°14.807 2°51.165 -999 -999 -999 -999 -999
2007-05-31 07:41 51°14.808 2°50.786 -999 -999 -999 -999 -999
2007-05-31 07:42 51°14.757 2°50.413 -999 -999 -999 -999 -999
2007-05-31 07:43 51°14.703 2°50.038 -999 -999 -999 -999 -999
2007-05-31 07:44 51°14.652 2°49.664 -999 -999 -999 -999 -999
2007-05-31 07:45 51°14.6 2°49.29 -999 -999 -999 -999 -999
2007-05-31 07:46 51°14.55 2°48.913 -999 -999 -999 -999 -999
2007-05-31 07:47 51°14.499 2°48.535 -999 -999 -999 -999 -999
2007-05-31 07:48 51°14.442 2°48.161 -999 -999 -999 -999 -999
2007-05-31 07:49 51°14.384 2°47.79 -999 -999 -999 -999 -999
2007-05-31 07:49 51°14.327 2°47.428 -999 -999 -999 -999 -999
2007-05-31 07:51 51°14.27 2°47.058 -999 -999 -999 -999 -999
2007-05-31 07:51 51°14.219 2°46.698 -999 -999 -999 -999 -999
2007-05-31 07:53 51°14.15 2°46.328 -999 -999 -999 -999 -999
2007-05-31 07:54 51°14.082 2°45.962 -999 -999 -999 -999 -999
2007-05-31 07:54 51°14.014 2°45.603 -999 -999 -999 -999 -999
2007-05-31 07:56 51°13.943 2°45.232 -999 -999 -999 -999 -999
2007-05-31 07:56 51°13.875 2°44.874 -999 -999 -999 -999 -999
2007-05-31 07:58 51°13.805 2°44.507 -999 -999 -999 -999 -999
2007-05-31 07:58 51°13.739 2°44.16 -999 -999 -999 -999 -999
2007-05-31 07:59 51°13.674 2°43.811 -999 -999 -999 -999 -999
2007-05-31 08:01 51°13.614 2°43.445 -999 -999 -999 -999 -999
2007-05-31 08:02 51°13.549 2°43.085 -999 -999 -999 -999 -999
2007-05-31 08:03 51°13.484 2°42.726 -999 -999 -999 -999 -999
2007-05-31 08:03 51°13.418 2°42.372 -999 -999 -999 -999 -999
2007-05-31 08:05 51°13.346 2°42.004 -999 -999 -999 -999 -999
2007-05-31 08:06 51°13.277 2°41.639 -999 -999 -999 -999 -999
2007-05-31 08:07 51°13.207 2°41.275 -999 -999 -999 -999 -999
2007-05-31 08:08 51°13.136 2°40.911 -999 -999 -999 -999 -999
2007-05-31 08:09 51°13.066 2°40.547 -999 -999 -999 -999 -999
2007-05-31 08:10 51°12.993 2°40.185 -999 -999 -999 -999 -999
2007-05-31 08:11 51°12.907 2°39.83 -999 -999 -999 -999 -999
2007-05-31 08:12 51°12.782 2°39.506 -999 -999 -999 -999 -999
2007-05-31 08:13 51°12.647 2°39.192 -999 -999 -999 -999 -999
2007-05-31 08:14 51°12.488 2°38.909 -999 -999 -999 -999 -999
2007-05-31 08:14 51°12.333 2°38.631 -999 -999 -999 -999 -999
2007-05-31 08:16 51°12.174 2°38.344 -999 -999 -999 -999 -999
2007-05-31 08:17 51°12.018 2°38.062 -999 -999 -999 -999 -999
2007-05-31 08:18 51°11.862 2°37.781 -999 -999 -999 -999 -999
2007-05-31 08:19 51°11.689 2°37.528 -999 -999 -999 -999 -999
2007-05-31 08:19 51°11.515 2°37.286 -999 -999 -999 -999 -999
2007-05-31 08:21 51°11.32 2°37.07 -999 -999 -999 -999 -999
2007-05-31 08:22 51°11.116 2°36.884 -999 -999 -999 -999 -999
2007-05-31 08:23 51°10.9 2°36.767 -999 -999 -999 -999 -999
2007-05-31 08:24 51°10.689 2°36.858 -999 -999 -999 -999 -999
2007-05-31 08:25 51°10.505 2°37.046 -999 -999 -999 -999 -999
2007-05-31 08:26 51°10.287 2°37.17 -999 -999 -999 -999 -999
2007-05-31 08:27 51°10.06 2°37.221 -999 -999 -999 -999 -999
2007-05-31 08:28 51°9.834 2°37.271 -999 -999 -999 -999 -999
2007-05-31 08:29 51°9.606 2°37.325 -999 -999 -999 -999 -999
2007-05-31 08:30 51°9.395 2°37.381 -999 -999 -999 -999 -999
2007-05-31 08:30 51°9.318 2°37.469 -999 -999 -999 -999 -999
2007-05-31 08:32 51°9.347 2°37.544 -999 -999 -999 -999 -999
2007-05-31 08:33 51°9.384 2°37.557 -999 -999 -999 -999 -999
2007-05-31 08:34 51°9.412 2°37.555 -999 -999 -999 -999 -999
2007-05-31 08:35 51°9.433 2°37.545 -999 -999 -999 -999 -999
2007-05-31 08:35 51°9.451 2°37.531 -999 -999 -999 -999 -999
2007-05-31 08:37 51°9.509 2°37.523 -999 -999 -999 -999 -999
2007-05-31 08:38 51°9.558 2°37.579 -999 -999 -999 -999 -999
2007-05-31 08:39 51°9.573 2°37.653 -999 -999 -999 -999 -999
2007-05-31 08:40 51°9.564 2°37.738 -999 -999 -999 -999 -999
2007-05-31 08:41 51°9.559 2°37.825 -999 -999 -999 -999 -999
2007-05-31 08:42 51°9.558 2°37.914 -999 -999 -999 -999 -999
2007-05-31 08:43 51°9.553 2°38.004 -999 -999 -999 -999 -999
2007-05-31 08:44 51°9.543 2°38.09 -999 -999 -999 -999 -999
2007-05-31 08:45 51°9.539 2°38.175 -999 -999 -999 -999 -999
2007-05-31 08:46 51°9.538 2°38.26 -999 -999 -999 -999 -999
2007-05-31 08:47 51°9.538 2°38.346 -999 -999 -999 -999 -999
2007-05-31 08:48 51°9.54 2°38.433 -999 -999 -999 -999 -999
2007-05-31 08:49 51°9.542 2°38.52 -999 -999 -999 -999 -999
2007-05-31 08:50 51°9.546 2°38.608 -999 -999 -999 -999 -999
2007-05-31 08:51 51°9.553 2°38.695 -999 -999 -999 -999 -999
2007-05-31 08:52 51°9.561 2°38.781 -999 -999 -999 -999 -999
2007-05-31 08:53 51°9.572 2°38.867 -999 -999 -999 -999 -999
2007-05-31 08:54 51°9.585 2°38.952 -999 -999 -999 -999 -999
2007-05-31 08:55 51°9.599 2°39.037 -999 -999 -999 -999 -999
2007-05-31 08:55 51°9.615 2°39.12 -999 -999 -999 -999 -999
2007-05-31 08:57 51°9.633 2°39.205 -999 -999 -999 -999 -999
2007-05-31 08:58 51°9.651 2°39.29 -999 -999 -999 -999 -999
2007-05-31 08:59 51°9.66 2°39.378 -999 -999 -999 -999 -999
2007-05-31 09:00 51°9.66 2°39.469 -999 -999 -999 -999 -999
2007-05-31 09:01 51°9.659 2°39.559 -999 -999 -999 -999 -999
2007-05-31 09:02 51°9.662 2°39.65 -999 -999 -999 -999 -999
2007-05-31 09:03 51°9.67 2°39.738 -999 -999 -999 -999 -999
2007-05-31 09:04 51°9.681 2°39.827 -999 -999 -999 -999 -999
2007-05-31 09:05 51°9.692 2°39.916 -999 -999 -999 -999 -999
2007-05-31 09:06 51°9.704 2°40.004 -999 -999 -999 -999 -999
2007-05-31 09:07 51°9.718 2°40.094 -999 -999 -999 -999 -999
2007-05-31 09:08 51°9.733 2°40.182 -999 -999 -999 -999 -999
2007-05-31 09:09 51°9.75 2°40.272 -999 -999 -999 -999 -999
2007-05-31 09:10 51°9.768 2°40.361 -999 -999 -999 -999 -999
2007-05-31 09:11 51°9.786 2°40.45 -999 -999 -999 -999 -999
2007-05-31 09:12 51°9.791 2°40.541 -999 -999 -999 -999 -999
2007-05-31 09:13 51°9.774 2°40.615 -999 -999 -999 -999 -999
2007-05-31 09:14 51°9.744 2°40.648 -999 -999 -999 -999 -999
2007-05-31 09:15 51°9.714 2°40.655 -999 -999 -999 -999 -999
2007-05-31 09:16 51°9.692 2°40.659 -999 -999 -999 -999 -999
2007-05-31 09:17 51°9.673 2°40.666 -999 -999 -999 -999 -999
2007-05-31 09:18 51°9.652 2°40.674 -999 -999 -999 -999 -999
2007-05-31 09:19 51°9.614 2°40.62 -999 -999 -999 -999 -999
2007-05-31 09:20 51°9.609 2°40.501 -999 -999 -999 -999 -999
2007-05-31 09:21 51°9.661 2°40.396 -999 -999 -999 -999 -999
2007-05-31 09:22 51°9.731 2°40.365 -999 -999 -999 -999 -999
2007-05-31 09:23 51°9.779 2°40.382 -999 -999 -999 -999 -999
2007-05-31 09:24 51°9.814 2°40.413 -999 -999 -999 -999 -999
2007-05-31 09:25 51°9.868 2°40.407 -999 -999 -999 -999 -999
2007-05-31 09:26 51°9.892 2°40.254 -999 -999 -999 -999 -999
2007-05-31 09:27 51°9.894 2°39.952 -999 -999 -999 -999 -999
2007-05-31 09:28 51°9.894 2°39.608 -999 -999 -999 -999 -999
2007-05-31 09:29 51°9.89 2°39.261 -999 -999 -999 -999 -999
2007-05-31 09:30 51°9.873 2°38.916 -999 -999 -999 -999 -999
2007-05-31 09:31 51°9.855 2°38.571 -999 -999 -999 -999 -999
2007-05-31 09:32 51°9.84 2°38.224 -999 -999 -999 -999 -999
2007-05-31 09:33 51°9.824 2°37.878 -999 -999 -999 -999 -999
2007-05-31 09:34 51°9.809 2°37.531 -999 -999 -999 -999 -999
2007-05-31 09:35 51°9.796 2°37.183 -999 -999 -999 -999 -999
2007-05-31 09:36 51°9.781 2°36.837 -999 -999 -999 -999 -999
2007-05-31 09:37 51°9.765 2°36.492 -999 -999 -999 -999 -999
2007-05-31 09:38 51°9.751 2°36.152 -999 -999 -999 -999 -999
2007-05-31 09:39 51°9.737 2°35.813 -999 -999 -999 -999 -999
2007-05-31 09:40 51°9.748 2°35.475 -999 -999 -999 -999 -999
2007-05-31 09:41 51°9.868 2°35.207 -999 -999 -999 -999 -999
2007-05-31 09:42 51°10.081 2°35.189 -999 -999 -999 -999 -999
2007-05-31 09:43 51°10.285 2°35.354 -999 -999 -999 -999 -999
2007-05-31 09:44 51°10.49 2°35.523 -999 -999 -999 -999 -999
2007-05-31 09:45 51°10.695 2°35.691 -999 -999 -999 -999 -999
2007-05-31 09:46 51°10.9 2°35.857 -999 -999 -999 -999 -999
2007-05-31 09:47 51°11.097 2°36.048 -999 -999 -999 -999 -999
2007-05-31 09:48 51°11.296 2°36.235 -999 -999 -999 -999 -999
2007-05-31 09:49 51°11.494 2°36.42 -999 -999 -999 -999 -999
2007-05-31 09:50 51°11.682 2°36.635 -999 -999 -999 -999 -999
2007-05-31 09:51 51°11.865 2°36.857 -999 -999 -999 -999 -999
2007-05-31 09:52 51°12.05 2°37.077 -999 -999 -999 -999 -999
2007-05-31 09:53 51°12.234 2°37.297 -999 -999 -999 -999 -999
2007-05-31 09:54 51°12.42 2°37.511 -999 -999 -999 -999 -999
2007-05-31 09:55 51°12.607 2°37.719 -999 -999 -999 -999 -999
2007-05-31 09:56 51°12.8 2°37.913 -999 -999 -999 -999 -999
2007-05-31 09:57 51°12.994 2°38.109 -999 -999 -999 -999 -999
2007-05-31 09:58 51°13.189 2°38.307 -999 -999 -999 -999 -999
2007-05-31 09:59 51°13.385 2°38.504 -999 -999 -999 -999 -999
2007-05-31 10:00 51°13.58 2°38.704 -999 -999 -999 -999 -999
2007-05-31 10:01 51°13.773 2°38.909 -999 -999 -999 -999 -999
2007-05-31 10:02 51°13.975 2°39.06 -999 -999 -999 -999 -999
2007-05-31 10:03 51°14.16 2°38.934 -999 -999 -999 -999 -999
2007-05-31 10:04 51°14.192 2°38.625 -999 -999 -999 -999 -999
2007-05-31 10:05 51°14.082 2°38.336 -999 -999 -999 -999 -999
2007-05-31 10:06 51°13.991 2°38.026 -999 -999 -999 -999 -999
2007-05-31 10:07 51°13.908 2°37.712 -999 -999 -999 -999 -999
2007-05-31 10:08 51°13.828 2°37.395 -999 -999 -999 -999 -999
2007-05-31 10:09 51°13.752 2°37.077 -999 -999 -999 -999 -999
2007-05-31 10:10 51°13.679 2°36.759 -999 -999 -999 -999 -999
2007-05-31 10:11 51°13.608 2°36.443 -999 -999 -999 -999 -999
2007-05-31 10:12 51°13.535 2°36.132 -999 -999 -999 -999 -999
2007-05-31 10:13 51°13.46 2°35.826 -999 -999 -999 -999 -999
2007-05-31 10:14 51°13.387 2°35.523 -999 -999 -999 -999 -999
2007-05-31 10:15 51°13.308 2°35.224 -999 -999 -999 -999 -999
2007-05-31 10:16 51°13.229 2°34.927 -999 -999 -999 -999 -999
2007-05-31 10:17 51°13.151 2°34.629 -999 -999 -999 -999 -999
2007-05-31 10:18 51°13.072 2°34.331 -999 -999 -999 -999 -999
2007-05-31 10:19 51°12.99 2°34.034 -999 -999 -999 -999 -999
2007-05-31 10:20 51°12.908 2°33.737 -999 -999 -999 -999 -999
2007-05-31 10:21 51°12.828 2°33.438 -999 -999 -999 -999 -999
2007-05-31 10:22 51°12.75 2°33.136 -999 -999 -999 -999 -999
2007-05-31 10:23 51°12.672 2°32.832 -999 -999 -999 -999 -999
2007-05-31 10:24 51°12.597 2°32.527 -999 -999 -999 -999 -999
2007-05-31 10:25 51°12.522 2°32.22 -999 -999 -999 -999 -999
2007-05-31 10:26 51°12.448 2°31.914 -999 -999 -999 -999 -999
2007-05-31 10:27 51°12.371 2°31.609 -999 -999 -999 -999 -999
2007-05-31 10:28 51°12.292 2°31.307 -999 -999 -999 -999 -999
2007-05-31 10:29 51°12.21 2°31.006 -999 -999 -999 -999 -999
2007-05-31 10:30 51°12.131 2°30.706 -999 -999 -999 -999 -999
2007-05-31 10:31 51°12.056 2°30.413 -999 -999 -999 -999 -999
2007-05-31 10:32 51°11.982 2°30.128 -999 -999 -999 -999 -999
2007-05-31 10:33 51°11.906 2°29.843 -999 -999 -999 -999 -999
2007-05-31 10:34 51°11.83 2°29.557 -999 -999 -999 -999 -999
2007-05-31 10:35 51°11.752 2°29.269 -999 -999 -999 -999 -999
2007-05-31 10:36 51°11.674 2°28.979 -999 -999 -999 -999 -999
2007-05-31 10:37 51°11.594 2°28.691 -999 -999 -999 -999 -999
2007-05-31 10:38 51°11.515 2°28.406 -999 -999 -999 -999 -999
2007-05-31 10:39 51°11.441 2°28.119 -999 -999 -999 -999 -999
2007-05-31 10:40 51°11.452 2°27.817 -999 -999 -999 -999 -999
2007-05-31 10:41 51°11.601 2°27.607 -999 -999 -999 -999 -999
2007-05-31 10:42 51°11.8 2°27.487 -999 -999 -999 -999 -999
2007-05-31 10:43 51°12 2°27.362 -999 -999 -999 -999 -999
2007-05-31 10:44 51°12.2 2°27.229 -999 -999 -999 -999 -999
2007-05-31 10:45 51°12.409 2°27.111 -999 -999 -999 -999 -999
2007-05-31 10:46 51°12.627 2°27.068 -999 -999 -999 -999 -999
2007-05-31 10:47 51°12.819 2°27.303 -999 -999 -999 -999 -999
2007-05-31 10:48 51°13.011 2°27.545 -999 -999 -999 -999 -999
2007-05-31 10:49 51°13.204 2°27.789 -999 -999 -999 -999 -999
2007-05-31 10:50 51°13.395 2°28.034 -999 -999 -999 -999 -999
2007-05-31 10:51 51°13.587 2°28.274 -999 -999 -999 -999 -999
2007-05-31 10:52 51°13.777 2°28.516 -999 -999 -999 -999 -999
2007-05-31 10:53 51°13.967 2°28.76 -999 -999 -999 -999 -999
2007-05-31 10:54 51°14.159 2°29.002 -999 -999 -999 -999 -999
2007-05-31 10:55 51°14.35 2°29.245 -999 -999 -999 -999 -999
2007-05-31 10:56 51°14.542 2°29.491 -999 -999 -999 -999 -999
2007-05-31 10:57 51°14.736 2°29.735 -999 -999 -999 -999 -999
2007-05-31 10:58 51°14.93 2°29.982 -999 -999 -999 -999 -999
2007-05-31 10:59 51°15.125 2°30.228 -999 -999 -999 -999 -999
2007-05-31 11:00 51°15.321 2°30.473 -999 -999 -999 -999 -999
2007-05-31 11:01 51°15.516 2°30.72 -999 -999 -999 -999 -999
2007-05-31 11:02 51°15.711 2°30.967 -999 -999 -999 -999 -999
2007-05-31 11:03 51°15.904 2°31.213 -999 -999 -999 -999 -999
2007-05-31 11:04 51°16.098 2°31.459 -999 -999 -999 -999 -999
2007-05-31 11:05 51°16.278 2°31.725 -999 -999 -999 -999 -999
2007-05-31 11:06 51°16.272 2°32.09 -999 -999 -999 -999 -999
2007-05-31 11:07 51°16.222 2°32.466 -999 -999 -999 -999 -999
2007-05-31 11:08 51°16.167 2°32.844 -999 -999 -999 -999 -999
2007-05-31 11:09 51°16.102 2°33.22 -999 -999 -999 -999 -999
2007-05-31 11:10 51°16.037 2°33.601 -999 -999 -999 -999 -999
2007-05-31 11:11 51°15.971 2°33.981 -999 -999 -999 -999 -999
2007-05-31 11:12 51°15.908 2°34.358 -999 -999 -999 -999 -999
2007-05-31 11:13 51°15.847 2°34.731 -999 -999 -999 -999 -999
2007-05-31 11:14 51°15.796 2°35.099 -999 -999 -999 -999 -999
2007-05-31 11:15 51°15.743 2°35.465 -999 -999 -999 -999 -999
2007-05-31 11:16 51°15.691 2°35.833 -999 -999 -999 -999 -999
2007-05-31 11:17 51°15.638 2°36.203 -999 -999 -999 -999 -999
2007-05-31 11:18 51°15.585 2°36.574 -999 -999 -999 -999 -999
2007-05-31 11:19 51°15.528 2°36.948 -999 -999 -999 -999 -999
2007-05-31 11:20 51°15.471 2°37.328 -999 -999 -999 -999 -999
2007-05-31 11:21 51°15.413 2°37.709 -999 -999 -999 -999 -999
2007-05-31 11:22 51°15.353 2°38.09 -999 -999 -999 -999 -999
2007-05-31 11:23 51°15.294 2°38.47 -999 -999 -999 -999 -999
2007-05-31 11:24 51°15.237 2°38.846 -999 -999 -999 -999 -999
2007-05-31 11:25 51°15.213 2°39.22 -999 -999 -999 -999 -999
2007-05-31 11:26 51°15.319 2°39.567 -999 -999 -999 -999 -999
2007-05-31 11:27 51°15.45 2°39.896 -999 -999 -999 -999 -999
2007-05-31 11:28 51°15.655 2°40.095 -999 -999 -999 -999 -999
2007-05-31 11:29 51°15.88 2°40.246 -999 -999 -999 -999 -999
2007-05-31 11:30 51°16.101 2°40.413 -999 -999 -999 -999 -999
2007-05-31 11:31 51°16.32 2°40.59 -999 -999 -999 -999 -999
2007-05-31 11:32 51°16.539 2°40.768 -999 -999 -999 -999 -999
2007-05-31 11:33 51°16.758 2°40.949 -999 -999 -999 -999 -999
2007-05-31 11:34 51°16.978 2°41.131 -999 -999 -999 -999 -999
2007-05-31 11:35 51°17.197 2°41.316 -999 -999 -999 -999 -999
2007-05-31 11:36 51°17.416 2°41.504 -999 -999 -999 -999 -999
2007-05-31 11:37 51°17.637 2°41.693 -999 -999 -999 -999 -999
2007-05-31 11:38 51°17.858 2°41.882 -999 -999 -999 -999 -999
2007-05-31 11:39 51°18.087 2°42.019 -999 -999 -999 -999 -999
2007-05-31 11:40 51°18.29 2°41.896 -999 -999 -999 -999 -999
2007-05-31 11:41 51°18.439 2°41.652 -999 -999 -999 -999 -999
2007-05-31 11:42 51°18.588 2°41.405 -999 -999 -999 -999 -999
2007-05-31 11:43 51°18.739 2°41.162 -999 -999 -999 -999 -999
2007-05-31 11:44 51°18.897 2°40.932 -999 -999 -999 -999 -999
2007-05-31 11:45 51°19.063 2°40.707 -999 -999 -999 -999 -999
2007-05-31 11:46 51°19.228 2°40.48 -999 -999 -999 -999 -999
2007-05-31 11:47 51°19.389 2°40.244 -999 -999 -999 -999 -999
2007-05-31 11:48 51°19.548 2°39.995 -999 -999 -999 -999 -999
2007-05-31 11:49 51°19.708 2°39.742 -999 -999 -999 -999 -999
2007-05-31 11:50 51°19.869 2°39.49 -999 -999 -999 -999 -999
2007-05-31 11:51 51°20.025 2°39.242 -999 -999 -999 -999 -999
2007-05-31 11:52 51°20.18 2°38.997 -999 -999 -999 -999 -999
2007-05-31 11:53 51°20.341 2°38.763 -999 -999 -999 -999 -999
2007-05-31 11:54 51°20.537 2°38.592 -999 -999 -999 -999 -999
2007-05-31 11:55 51°20.734 2°38.42 -999 -999 -999 -999 -999
2007-05-31 11:56 51°20.929 2°38.246 -999 -999 -999 -999 -999
2007-05-31 11:57 51°21.124 2°38.072 -999 -999 -999 -999 -999
2007-05-31 11:58 51°21.318 2°37.895 -999 -999 -999 -999 -999
2007-05-31 11:59 51°21.514 2°37.721 -999 -999 -999 -999 -999
2007-05-31 12:00 51°21.736 2°37.625 -999 -999 -999 -999 -999
2007-05-31 12:01 51°21.967 2°37.563 -999 -999 -999 -999 -999
2007-05-31 12:02 51°22.204 2°37.525 -999 -999 -999 -999 -999
2007-05-31 12:03 51°22.443 2°37.489 -999 -999 -999 -999 -999
2007-05-31 12:04 51°22.682 2°37.461 -999 -999 -999 -999 -999
2007-05-31 12:05 51°22.921 2°37.443 -999 -999 -999 -999 -999
2007-05-31 12:06 51°23.156 2°37.425 -999 -999 -999 -999 -999
2007-05-31 12:07 51°23.391 2°37.406 -999 -999 -999 -999 -999
2007-05-31 12:08 51°23.621 2°37.477 -999 -999 -999 -999 -999
2007-05-31 12:09 51°23.807 2°37.724 -999 -999 -999 -999 -999
2007-05-31 12:10 51°23.976 2°38.01 -999 -999 -999 -999 -999
2007-05-31 12:11 51°24.149 2°38.291 -999 -999 -999 -999 -999
2007-05-31 12:12 51°24.318 2°38.579 -999 -999 -999 -999 -999
2007-05-31 12:13 51°24.452 2°38.91 -999 -999 -999 -999 -999
2007-05-31 12:14 51°24.572 2°39.253 -999 -999 -999 -999 -999
2007-05-31 12:15 51°24.662 2°39.619 -999 -999 -999 -999 -999
2007-05-31 12:16 51°24.758 2°39.984 -999 -999 -999 -999 -999
2007-05-31 12:17 51°24.863 2°40.341 -999 -999 -999 -999 -999
2007-05-31 12:18 51°24.972 2°40.698 -999 -999 -999 -999 -999
2007-05-31 12:19 51°25.082 2°41.052 -999 -999 -999 -999 -999
2007-05-31 12:20 51°25.202 2°41.4 -999 -999 -999 -999 -999
2007-05-31 12:21 51°25.323 2°41.745 -999 -999 -999 -999 -999
2007-05-31 12:22 51°25.445 2°42.089 -999 -999 -999 -999 -999
2007-05-31 12:23 51°25.566 2°42.434 -999 -999 -999 -999 -999
2007-05-31 12:24 51°25.685 2°42.781 -999 -999 -999 -999 -999
2007-05-31 12:25 51°25.803 2°43.133 -999 -999 -999 -999 -999
2007-05-31 12:26 51°25.905 2°43.499 -999 -999 -999 -999 -999
2007-05-31 12:27 51°25.988 2°43.877 -999 -999 -999 -999 -999
2007-05-31 12:28 51°26.06 2°44.262 -999 -999 -999 -999 -999
2007-05-31 12:29 51°26.13 2°44.646 -999 -999 -999 -999 -999
2007-05-31 12:30 51°26.201 2°45.029 -999 -999 -999 -999 -999
2007-05-31 12:31 51°26.273 2°45.41 -999 -999 -999 -999 -999
2007-05-31 12:32 51°26.344 2°45.791 -999 -999 -999 -999 -999
2007-05-31 12:33 51°26.415 2°46.17 -999 -999 -999 -999 -999
2007-05-31 12:34 51°26.486 2°46.549 -999 -999 -999 -999 -999
2007-05-31 12:35 51°26.559 2°46.927 -999 -999 -999 -999 -999
2007-05-31 12:36 51°26.64 2°47.301 -999 -999 -999 -999 -999
2007-05-31 12:37 51°26.719 2°47.676 -999 -999 -999 -999 -999
2007-05-31 12:38 51°26.8 2°48.054 -999 -999 -999 -999 -999
2007-05-31 12:39 51°26.884 2°48.437 -999 -999 -999 -999 -999
2007-05-31 12:40 51°26.968 2°48.823 -999 -999 -999 -999 -999
2007-05-31 12:41 51°27.055 2°49.209 -999 -999 -999 -999 -999
2007-05-31 12:42 51°27.14 2°49.597 -999 -999 -999 -999 -999
2007-05-31 12:43 51°27.225 2°49.982 -999 -999 -999 -999 -999
2007-05-31 12:44 51°27.309 2°50.367 -999 -999 -999 -999 -999
2007-05-31 12:45 51°27.39 2°50.752 -999 -999 -999 -999 -999
2007-05-31 12:46 51°27.379 2°51.132 -999 -999 -999 -999 -999
2007-05-31 12:47 51°27.222 2°51.374 -999 -999 -999 -999 -999
2007-05-31 12:48 51°27.019 2°51.438 -999 -999 -999 -999 -999
2007-05-31 12:49 51°26.814 2°51.513 -999 -999 -999 -999 -999
2007-05-31 12:50 51°26.61 2°51.598 -999 -999 -999 -999 -999
2007-05-31 12:51 51°26.405 2°51.69 -999 -999 -999 -999 -999
2007-05-31 12:52 51°26.202 2°51.785 -999 -999 -999 -999 -999
2007-05-31 12:53 51°26.001 2°51.875 -999 -999 -999 -999 -999
2007-05-31 12:54 51°25.798 2°51.959 -999 -999 -999 -999 -999
2007-05-31 12:55 51°25.595 2°52.029 -999 -999 -999 -999 -999
2007-05-31 12:56 51°25.4 2°51.973 -999 -999 -999 -999 -999
2007-05-31 12:57 51°25.216 2°51.854 -999 -999 -999 -999 -999
2007-05-31 12:58 51°25.036 2°51.724 -999 -999 -999 -999 -999
2007-05-31 12:59 51°24.854 2°51.598 -999 -999 -999 -999 -999
2007-05-31 13:00 51°24.674 2°51.458 -999 -999 -999 -999 -999
2007-05-31 13:01 51°24.498 2°51.309 -999 -999 -999 -999 -999
2007-05-31 13:02 51°24.323 2°51.162 -999 -999 -999 -999 -999
2007-05-31 13:03 51°24.147 2°51.012 -999 -999 -999 -999 -999
2007-05-31 13:04 51°23.966 2°50.857 -999 -999 -999 -999 -999
2007-05-31 13:05 51°23.785 2°50.706 -999 -999 -999 -999 -999
2007-05-31 13:06 51°23.605 2°50.556 -999 -999 -999 -999 -999
2007-05-31 13:07 51°23.426 2°50.407 -999 -999 -999 -999 -999
2007-05-31 13:08 51°23.246 2°50.258 -999 -999 -999 -999 -999
2007-05-31 13:09 51°23.066 2°50.109 -999 -999 -999 -999 -999
2007-05-31 13:10 51°22.885 2°49.958 -999 -999 -999 -999 -999
2007-05-31 13:11 51°22.704 2°49.808 -999 -999 -999 -999 -999
2007-05-31 13:12 51°22.521 2°49.665 -999 -999 -999 -999 -999
2007-05-31 13:13 51°22.339 2°49.521 -999 -999 -999 -999 -999
2007-05-31 13:14 51°22.155 2°49.376 -999 -999 -999 -999 -999
2007-05-31 13:15 51°21.972 2°49.229 -999 -999 -999 -999 -999
2007-05-31 13:16 51°21.792 2°49.077 -999 -999 -999 -999 -999
2007-05-31 13:17 51°21.619 2°48.902 -999 -999 -999 -999 -999
2007-05-31 13:18 51°21.447 2°48.725 -999 -999 -999 -999 -999
2007-05-31 13:19 51°21.276 2°48.542 -999 -999 -999 -999 -999
2007-05-31 13:20 51°21.102 2°48.363 -999 -999 -999 -999 -999
2007-05-31 13:21 51°20.93 2°48.185 -999 -999 -999 -999 -999
2007-05-31 13:22 51°20.758 2°48.006 -999 -999 -999 -999 -999
2007-05-31 13:23 51°20.586 2°47.824 -999 -999 -999 -999 -999
2007-05-31 13:24 51°20.414 2°47.644 -999 -999 -999 -999 -999
2007-05-31 13:25 51°20.243 2°47.463 -999 -999 -999 -999 -999
2007-05-31 13:26 51°20.071 2°47.281 -999 -999 -999 -999 -999
2007-05-31 13:27 51°19.899 2°47.097 -999 -999 -999 -999 -999
2007-05-31 13:28 51°19.726 2°46.912 -999 -999 -999 -999 -999
2007-05-31 13:29 51°19.551 2°46.734 -999 -999 -999 -999 -999
2007-05-31 13:30 51°19.376 2°46.553 -999 -999 -999 -999 -999
2007-05-31 13:31 51°19.201 2°46.372 -999 -999 -999 -999 -999
2007-05-31 13:32 51°19.026 2°46.189 -999 -999 -999 -999 -999
2007-05-31 13:33 51°18.851 2°46.006 -999 -999 -999 -999 -999
2007-05-31 13:34 51°18.676 2°45.825 -999 -999 -999 -999 -999
2007-05-31 13:35 51°18.496 2°45.657 -999 -999 -999 -999 -999
2007-05-31 13:36 51°18.318 2°45.486 -999 -999 -999 -999 -999
2007-05-31 13:37 51°18.139 2°45.314 -999 -999 -999 -999 -999
2007-05-31 13:38 51°17.961 2°45.142 -999 -999 -999 -999 -999
2007-05-31 13:39 51°17.782 2°44.971 -999 -999 -999 -999 -999
2007-05-31 13:40 51°17.605 2°44.798 -999 -999 -999 -999 -999
2007-05-31 13:41 51°17.428 2°44.626 -999 -999 -999 -999 -999
2007-05-31 13:42 51°17.25 2°44.451 -999 -999 -999 -999 -999
2007-05-31 13:43 51°17.068 2°44.287 -999 -999 -999 -999 -999
2007-05-31 13:44 51°16.886 2°44.124 -999 -999 -999 -999 -999
2007-05-31 13:45 51°16.704 2°43.959 -999 -999 -999 -999 -999
2007-05-31 13:46 51°16.522 2°43.795 -999 -999 -999 -999 -999
2007-05-31 13:47 51°16.335 2°43.643 -999 -999 -999 -999 -999
2007-05-31 13:48 51°16.147 2°43.492 -999 -999 -999 -999 -999
2007-05-31 13:49 51°15.959 2°43.341 -999 -999 -999 -999 -999
2007-05-31 13:50 51°15.773 2°43.188 -999 -999 -999 -999 -999
2007-05-31 13:51 51°15.585 2°43.036 -999 -999 -999 -999 -999
2007-05-31 13:52 51°15.397 2°42.885 -999 -999 -999 -999 -999
2007-05-31 13:53 51°15.209 2°42.734 -999 -999 -999 -999 -999
2007-05-31 13:54 51°15.02 2°42.584 -999 -999 -999 -999 -999
2007-05-31 13:55 51°14.831 2°42.435 -999 -999 -999 -999 -999
2007-05-31 13:56 51°14.633 2°42.361 -999 -999 -999 -999 -999
2007-05-31 13:57 51°14.461 2°42.543 -999 -999 -999 -999 -999
2007-05-31 13:58 51°14.437 2°42.881 -999 -999 -999 -999 -999
2007-05-31 13:59 51°14.501 2°43.234 -999 -999 -999 -999 -999
2007-05-31 14:00 51°14.548 2°43.595 -999 -999 -999 -999 -999
2007-05-31 14:01 51°14.58 2°43.957 -999 -999 -999 -999 -999
2007-05-31 14:02 51°14.61 2°44.32 -999 -999 -999 -999 -999
2007-05-31 14:03 51°14.634 2°44.683 -999 -999 -999 -999 -999
2007-05-31 14:04 51°14.664 2°45.044 -999 -999 -999 -999 -999
2007-05-31 14:05 51°14.691 2°45.402 -999 -999 -999 -999 -999
2007-05-31 14:06 51°14.718 2°45.756 -999 -999 -999 -999 -999
2007-05-31 14:07 51°14.752 2°46.108 -999 -999 -999 -999 -999
2007-05-31 14:08 51°14.785 2°46.464 -999 -999 -999 -999 -999
2007-05-31 14:09 51°14.831 2°46.82 -999 -999 -999 -999 -999
2007-05-31 14:10 51°14.876 2°47.178 -999 -999 -999 -999 -999
2007-05-31 14:11 51°14.92 2°47.538 -999 -999 -999 -999 -999
2007-05-31 14:12 51°14.964 2°47.896 -999 -999 -999 -999 -999
2007-05-31 14:13 51°15.008 2°48.254 -999 -999 -999 -999 -999
2007-05-31 14:14 51°15.051 2°48.609 -999 -999 -999 -999 -999
2007-05-31 14:15 51°15.093 2°48.966 -999 -999 -999 -999 -999
2007-05-31 14:16 51°15.135 2°49.322 -999 -999 -999 -999 -999
2007-05-31 14:17 51°15.179 2°49.678 -999 -999 -999 -999 -999
2007-05-31 14:18 51°15.223 2°50.033 -999 -999 -999 -999 -999
2007-05-31 14:19 51°15.265 2°50.387 -999 -999 -999 -999 -999
2007-05-31 14:20 51°15.307 2°50.745 -999 -999 -999 -999 -999
2007-05-31 14:21 51°15.349 2°51.104 -999 -999 -999 -999 -999
2007-05-31 14:22 51°15.333 2°51.46 -999 -999 -999 -999 -999
2007-05-31 14:23 51°15.24 2°51.78 -999 -999 -999 -999 -999
2007-05-31 14:24 51°15.138 2°52.095 -999 -999 -999 -999 -999
2007-05-31 14:25 51°15.032 2°52.407 -999 -999 -999 -999 -999
2007-05-31 14:26 51°14.936 2°52.726 -999 -999 -999 -999 -999
2007-05-31 14:27 51°14.846 2°53.051 -999 -999 -999 -999 -999
2007-05-31 14:28 51°14.759 2°53.377 -999 -999 -999 -999 -999
2007-05-31 14:29 51°14.711 2°53.724 -999 -999 -999 -999 -999
2007-05-31 14:30 51°14.668 2°54.061 -999 -999 -999 -999 -999
2007-05-31 14:31 51°14.585 2°54.392 -999 -999 -999 -999 -999
2007-05-31 14:32 51°14.483 2°54.715 -999 -999 -999 -999 -999
2007-05-31 14:33 51°14.37 2°55.022 -999 -999 -999 -999 -999
2007-05-31 14:34 51°14.241 2°55.298 -999 -999 -999 -999 -999
2007-05-31 14:35 51°14.097 2°55.439 -999 -999 -999 -999 -999
2007-05-31 14:36 51°13.984 2°55.518 -999 -999 -999 -999 -999
2007-05-31 14:37 51°13.877 2°55.593 -999 -999 -999 -999 -999
2007-05-31 14:38 51°13.766 2°55.692 -999 -999 -999 -999 -999
2007-05-31 14:39 51°13.686 2°55.839 -999 -999 -999 -999 -999
2007-05-31 14:40 51°13.636 2°55.955 -999 -999 -999 -999 -999
2007-05-31 14:41 51°13.611 2°56.042 -999 -999 -999 -999 -999
2007-05-31 14:42 51°13.6 2°56.084 -999 -999 -999 -999 -999